FW4333 Weather Reports


Display with metric or nautical units.
time (UTC)temp
F
wind
direction
speed
MPH
gust
MPH
rain 1hr
in
rain 24hr
in
rain mn
in
humidity
%
barometer
mb
20190818153015 82 203 3.0 7.0 0.00 0.00 0.00 33 1007.1
20190818144058 83 160 4.0 9.0 0.00 0.00 0.00 33 1007.0
20190818143054 84 203 5.0 9.0 0.00 0.00 0.00 31 1007.0
20190818142051 84 135 1.0 3.0 0.00 0.00 0.00 31 1007.1
20190818141048 85 190 5.0 13.0 0.00 0.00 0.00 28 1007.1
20190818140044 85 201 5.0 9.0 0.00 0.00 0.00 27 1007.1
20190818135040 86 201 4.0 9.0 0.00 0.00 0.00 24 1007.1
20190818134037 86 239 4.0 8.0 0.00 0.00 0.00 25 1007.1
20190818133033 85 190 3.0 6.0 0.00 0.00 0.00 26 1007.3
20190818132030 85 165 5.0 11.0 0.00 0.00 0.00 26 1007.2
20190818131026 85 212 2.0 7.0 0.00 0.00 0.00 26 1007.2
20190818130022 85 174 3.0 7.0 0.00 0.00 0.00 26 1007.2
20190818125019 85 203 4.0 9.0 0.00 0.00 0.00 25 1007.2
20190818124015 85 155 2.0 4.0 0.00 0.00 0.00 25 1007.3
20190818115057 84 249 3.0 11.0 0.00 0.00 0.00 29 1007.6
20190818114054 83 201 3.0 9.0 0.00 0.00 0.00 30 1007.7
20190818113050 83 329 3.0 7.0 0.00 0.00 0.00 30 1007.8
20190818112047 83 307 3.0 5.0 0.00 0.00 0.00 30 1007.8
20190818111043 83 263 6.0 12.0 0.00 0.00 0.00 30 1007.9
20190818110040 83 285 4.0 12.0 0.00 0.00 0.00 30 1007.7
20190818105036 84 220 3.0 6.0 0.00 0.00 0.00 30 1007.6
20190818104033 82 193 5.0 15.0 0.00 0.00 0.00 31 1007.8
20190818103059 83 236 2.0 6.0 0.00 0.00 0.00 32 1007.8
20190818102055 82 223 4.0 11.0 0.00 0.00 0.00 33 1007.9
20190818101052 82 217 6.0 9.0 0.00 0.00 0.00 33 1007.8
20190818100046 82 180 6.0 11.0 0.00 0.00 0.00 33 1008.0
20190818095043 81 178 3.0 9.0 0.00 0.00 0.00 31 1008.1
20190818094039 81 285 5.0 11.0 0.00 0.00 0.00 31 1008.1
20190818093036 80 238 5.0 9.0 0.00 0.00 0.00 33 1008.3
20190818092033 80 192 7.0 14.0 0.00 0.00 0.00 33 1008.3
20190818091029 80 164 3.0 6.0 0.00 0.00 0.00 36 1008.2
20190818090028 80 234 7.0 13.0 0.00 0.00 0.00 34 1008.3
20190818085022 79 272 5.0 9.0 0.00 0.00 0.00 38 1008.3
20190818084019 79 220 4.0 8.0 0.00 0.00 0.00 39 1008.2
20190818083015 78 226 5.0 13.0 0.00 0.00 0.00 40 1008.2
20190818074559 76 216 3.0 7.0 0.00 0.00 0.00 43 1008.4
20190818073554 76 315 3.0 8.0 0.00 0.00 0.00 44 1008.4
20190818072550 75 207 4.0 9.0 0.00 0.00 0.00 44 1008.4
20190818071547 74 202 3.0 7.0 0.00 0.00 0.00 47 1008.5
20190818070541 74 189 2.0 5.0 0.00 0.00 0.00 51 1008.6
20190818065538 73 209 4.0 8.0 0.00 0.00 0.00 52 1008.6
20190818064535 71 158 2.0 6.0 0.00 0.00 0.00 54 1008.6
20190818063531 71 246 2.0 6.0 0.00 0.00 0.00 58 1008.6
20190818062528 70 195 3.0 7.0 0.00 0.00 0.00 59 1008.5
20190818061522 68 208 3.0 6.0 0.00 0.00 0.00 62 1008.4
20190818060519 67 135 1.0 3.0 0.00 0.00 0.00 65 1008.5
20190818055516 66 234 2.0 6.0 0.00 0.00 0.00 67 1008.6
20190818050557 60 0.0 1.0 0.00 0.00 0.00 85 1008.9
20190818045553 59 0.0 0.0 0.00 0.00 0.00 86 1008.8
20190818044549 58 0.0 0.0 0.00 0.00 0.00 87 1008.7
20190818043544 57 0.0 0.0 0.00 0.00 0.00 87 1008.4
20190818042539 57 0.0 1.0 0.00 0.00 0.00 87 1008.5
20190818041534 57 0.0 1.0 0.00 0.00 0.00 86 1008.6
20190818040530 56 0.0 0.0 0.00 0.00 0.00 86 1008.5
20190818035527 56 0.0 0.0 0.00 0.00 0.00 86 1008.7
20190818034523 56 0.0 0.0 0.00 0.00 0.00 85 1008.6
20190818033520 57 0.0 0.0 0.00 0.00 0.00 83 1008.8
20190818032517 57 0.0 0.0 0.00 0.00 0.00 83 1008.8
20190818023559 60 152 0.0 3.0 0.00 0.00 0.00 81 1008.8
20190818022556 60 171 1.0 3.0 0.00 0.00 0.00 81 1008.9
20190818021553 60 182 0.0 3.0 0.00 0.00 0.00 81 1009.0
20190818020549 59 180 1.0 2.0 0.00 0.00 0.00 81 1009.0
20190818015545 59 173 1.0 3.0 0.00 0.00 0.00 81 1009.3
20190818014542 59 195 1.0 3.0 0.00 0.00 0.00 80 1009.3
20190818013538 60 180 0.0 2.0 0.00 0.00 0.00 79 1009.3
20190818012535 60 0.0 0.0 0.00 0.00 0.00 77 1009.6
20190818011532 61 0.0 0.0 0.00 0.00 0.00 76 1009.7
20190818010526 61 180 0.0 1.0 0.00 0.00 0.00 76 1009.8
20190818005522 61 225 0.0 2.0 0.00 0.00 0.00 76 1009.7
20190818004519 61 184 1.0 3.0 0.00 0.00 0.00 77 1009.5
20190818003515 61 210 1.0 3.0 0.00 0.00 0.00 76 1009.5
20190817235057 62 182 0.0 2.0 0.00 0.00 0.00 71 1009.7
20190817234054 62 205 0.0 2.0 0.00 0.00 0.00 70 1009.8
20190817233050 63 185 0.0 2.0 0.00 0.00 0.00 70 1009.8
20190817232047 63 210 1.0 3.0 0.00 0.00 0.00 69 1010.0
20190817231043 64 220 0.0 3.0 0.00 0.00 0.00 69 1010.0
20190817230040 64 213 1.0 3.0 0.00 0.00 0.00 69 1010.0
20190817225036 64 202 1.0 3.0 0.00 0.00 0.00 69 1010.0
20190817224033 64 225 1.0 3.0 0.00 0.00 0.00 69 1010.1
20190817223029 63 218 1.0 3.0 0.00 0.00 0.00 69 1010.1
20190817222026 63 200 0.0 2.0 0.00 0.00 0.00 69 1010.0
20190817221023 64 180 0.0 3.0 0.00 0.00 0.00 68 1010.0
20190817220019 64 187 0.0 2.0 0.00 0.00 0.00 67 1010.0
20190817215016 65 218 1.0 3.0 0.00 0.00 0.00 67 1010.0
20190817210059 66 223 1.0 3.0 0.00 0.00 0.00 64 1010.0
20190817205055 66 210 1.0 3.0 0.00 0.00 0.00 64 1010.0
20190817204051 67 235 1.0 3.0 0.00 0.00 0.00 64 1010.0
20190817203048 67 212 1.0 3.0 0.00 0.00 0.00 64 1010.0
20190817202044 67 150 1.0 3.0 0.00 0.00 0.00 64 1010.0
20190817201041 67 221 1.0 3.0 0.00 0.00 0.00 65 1010.0
20190817200038 67 219 1.0 3.0 0.00 0.00 0.00 65 1009.9
20190817195034 67 214 1.0 3.0 0.00 0.00 0.00 65 1010.0
20190817194100 68 155 1.0 3.0 0.00 0.00 0.00 63 1010.1
20190817193056 68 135 0.0 2.0 0.00 0.00 0.00 62 1010.1
20190817192050 68 0.0 0.0 0.00 0.00 0.00 61 1010.1
20190817191047 69 0.0 0.0 0.00 0.00 0.00 60 1010.2
20190817190043 69 0.0 0.0 0.00 0.00 0.00 59 1010.2
20190817185042 70 0.0 1.0 0.00 0.00 0.00 57 1010.1
20190817184036 70 135 0.0 1.0 0.00 0.00 0.00 56 1010.3
20190817183033 70 148 0.0 2.0 0.00 0.00 0.00 55 1010.5
20190817182029 71 140 1.0 3.0 0.00 0.00 0.00 54 1010.4
20190817173559 72 170 1.0 3.0 0.00 0.00 0.00 49 1010.3
20190817172552 73 159 0.0 3.0 0.00 0.00 0.00 47 1010.2
20190817171549 74 168 1.0 5.0 0.00 0.00 0.00 46 1010.4
20190817170546 74 181 1.0 3.0 0.00 0.00 0.00 46 1010.4
20190817165542 74 180 1.0 5.0 0.00 0.00 0.00 45 1010.5
20190817164539 74 186 2.0 5.0 0.00 0.00 0.00 44 1010.4
20190817163535 74 199 3.0 8.0 0.00 0.00 0.00 44 1010.5
20190817162532 75 90 0.0 2.0 0.00 0.00 0.00 42 1010.4
20190817161527 76 160 1.0 3.0 0.00 0.00 0.00 41 1010.3
20190817160523 76 135 0.0 1.0 0.00 0.00 0.00 41 1010.2
20190817155519 76 180 1.0 3.0 0.00 0.00 0.00 41 1010.2
20190817154516 76 177 1.0 4.0 0.00 0.00 0.00 39 1010.3